Погода в Балыкче

Россия / Республика Алтай     51°17′12″N   87°43′08″E
темп.,
°C
ветер,
м/с
пор.,
м/с
влажн.,
%
обл.,
%
осадки,
мм/ч
давл.,
гПа
погр.,
м
18 апреля, вс
вс1801:00−3ююз0192100 0.1 1021152
04:00−4ю239498 0.0 102082
07:00−3ююз128944 0.0 101968
10:00+5юз254428 0.1 10152010
13:00+7з3836100 0.1 10132592
16:00+8з4103368 0.0 10112665
19:00+5з37444 0.0 10131453
22:00−1юз22676 0.0 101714
19 апреля, пн
пн1901:00−2ююз23714 0.0 101662
04:00−2ююз3563100 0.0 101584
07:00−1ю376585 0.0 1012148
10:00+6юз41548100 0.0 10062090
13:00−4с5791100 2.4 1015456
16:00−4с3483100 2.1 1017540
19:00−6с3492100 5.3 1019440
22:00−8ссз2494100 2.9 1020337
20 апреля, вт
вт2001:00−9ссз2595100 5.3 1021383
04:00−10ссз2495100 1.2 1021368
07:00−10ссз2493100 2.1 1021417
10:00−9ссз2385100 0.8 1021674
13:00−6с3375100 1.1 10181013
16:00−6ссз4474100 0.1 10191054
19:00−8ссз3584100 0.3 1021710
22:00−13ссз249999 0.1 102691
21 апреля, ср
ср2101:00−15сз119993 0.1 102812
04:00−18ююз009996 0.1 103011
07:00−17ююв119691 0.1 102952
10:00−7ю12689 0.0 1022588
13:00−2ссв116071 0.0 10171256
16:00−1с3262100 0.1 10151292
19:00−5ссз358498 0.3 1019585
22:00−8ссз2595100 0.1 1022368
22 апреля, чт
чт2201:00−9ссз2495100 0.6 1024333
04:00−9ссз2494100 0.7 1025340
07:00−9ссз2392100 1.1 1026350
10:00−6ссз2380100 0.4 1026904
13:00−4ссз3374100 0.7 10261167
16:00−3ссз4472100 0.3 10271218
19:00−5ссз3585100 0.5 1030708
22:00−7ссз2594100 0.3 1033391